Temp
17 17 18 19 19 19 20 20 20 19 17 16 17 17 17 17 17 17 17 16 16 15 15 15 14 14 13 14 14 13 12 11 11 11 12 11 11 11 11 10 10 10 11
18 16 16 17 18 19 18 17 17 16 16 16 15 15 15 16 16 16 16 16 16 16 14 14 13 13 11 11 12 11 11 11 10 12 12 14 13 10 9 10 9 9 9
20 19 18 16 17 16 16 16 16 15 15 15 15 15 15 14 14 14 14 14 14 14 14 14 13 12 11 10 11 11 11 12 11 10 13 14 13 13 10 9 9 8 8
19 18 17 15 14 15 15 15 14 14 14 14 14 13 12 12 12 11 11 12 13 13 13 13 13 12 10 9 9 10 10 10 12 9 8 8 9 12 13 9 9 8 8
17 15 14 13 12 14 14 14 14 14 14 13 13 12 11 10 10 10 10 10 11 11 12 12 12 12 11 9 8 8 7 8 9 9 8 8 8 7 10 11 10 7 7
16 14 13 13 13 14 14 15 14 14 14 13 12 11 10 9 9 10 9 10 9 9 10 10 10 9 8 6 5 5 5 5 6 5 6 7 8 8 7 7 7 6 6
14 14 14 14 13 14 14 13 13 12 12 11 11 11 10 9 9 9 9 8 8 7 7 7 6 5 4 4 3 3 3 2 2 2 2 2 2 2 1 2 4 6 6
14 14 13 13 13 12 12 11 11 11 11 12 11 11 10 9 8 7 7 7 6 5 6 5 4 5 5 5 5 4 3 2 1 1 0 -0 -0 -0 -0 0 2 4 5
14 14 14 13 12 12 12 12 12 12 12 11 10 9 9 8 7 6 6 5 4 4 4 5 5 5 4 5 4 4 4 2 1 0 -0 -0 0 1 0 1 1 2 4
15 15 15 13 12 12 12 12 11 10 10 9 8 7 7 6 6 6 6 4 4 3 4 4 4 4 3 3 3 3 2 1 1 1 1 1 1 1 1 1 2 3 4
15 15 14 13 11 11 11 10 9 9 8 8 7 7 6 5 5 4 3 3 4 4 4 3 3 2 1 2 4 4 3 2 2 2 2 2 1 2 2 2 2 2 2
14 13 12 11 11 11 10 10 8 7 7 7 6 4 4 5 3 2 3 3 3 3 3 3 1 1 2 2 2 2 3 2 2 2 2 2 1 1 1 1 1 1 1
13 13 12 11 11 10 9 8 7 7 6 5 4 4 4 4 2 2 1 2 2 2 2 1 0 0 1 1 2 2 2 2 1 0 -0 -0 -1 -1 -0 -1 -0 -0 0
12 12 11 10 10 9 8 7 6 6 5 4 4 3 3 2 1 1 1 1 1 1 1 0 1 0 1 1 1 1 0 -0 -1 -1 -2 -2 -2 -2 -2 -2 -2 -1 -1
11 10 10 9 9 8 7 6 6 5 4 3 3 3 2 2 2 2 2 2 2 2 1 1 0 0 -0 -0 -1 -1 -1 -1 -1 -2 -2 -2 -3 -4 -4 -3 -2 -2 -2
9 9 8 8 8 7 6 5 5 4 3 3 2 2 2 2 2 2 1 1 1 0 1 0 0 -0 -1 -1 -2 -2 -2 -2 -2 -3 -3 -4 -4 -4 -5 -5 -5 -4 -3
7 8 9 9 7 6 5 5 4 4 3 2 2 2 2 2 1 1 1 0 -0 -1 -1 -1 -2 -2 -3 -3 -3 -4 -4 -3 -4 -4 -4 -4 -4 -4 -4 -4 -5 -5 -5
7 9 9 7 7 6 5 4 4 3 3 2 2 2 1 1 0 -0 -0 -1 -1 -2 -2 -2 -3 -3 -3 -4 -5 -5 -5 -5 -5 -5 -5 -5 -5 -5 -5 -5 -5 -4 -4
7 8 7 6 5 5 4 3 3 2 2 2 2 1 0 -0 -1 -1 -2 -2 -2 -2 -3 -3 -4 -4 -4 -6 -6 -6 -5 -5 -6 -5 -5 -5 -5 -5 -5 -5 -5 -4 -4
8 8 7 5 5 5 4 3 3 2 2 1 1 0 -0 -1 -1 -2 -2 -3 -3 -3 -4 -5 -5 -5 -6 -6 -7 -6 -6 -6 -6 -5 -5 -5 -5 -6 -6 -5 -5 -5 -4
7 7 6 5 5 4 3 3 2 2 2 1 1 0 -0 -1 -2 -3 -3 -3 -3 -4 -5 -6 -6 -6 -7 -7 -7 -7 -6 -6 -6 -5 -5 -5 -5 -6 -6 -6 -6 -6 -6
7 6 5 5 5 4 3 3 3 2 1 1 1 -0 -1 -1 -2 -3 -3 -3 -4 -5 -5 -6 -6 -6 -7 -7 -7 -7 -7 -7 -6 -6 -5 -5 -6 -7 -7 -7 -7 -7 -7
6 5 4 4 3 4 2 3 3 2 1 1 -0 -1 -1 -2 -3 -3 -3 -4 -4 -5 -5 -5 -6 -6 -7 -7 -8 -8 -7 -7 -7 -6 -7 -7 -8 -8 -8 -8 -8 -8 -7
5 4 3 4 3 3 3 2 2 2 1 -0 -1 -1 -2 -2 -3 -4 -4 -4 -5 -5 -6 -6 -6 -7 -7 -7 -7 -7 -7 -7 -7 -7 -7 -8 -9 -8 -8 -8 -8 -8 -8
3 3 2 2 2 2 2 2 2 2 -0 -1 -1 -2 -3 -3 -4 -4 -5 -5 -6 -7 -6 -7 -7 -8 -8 -8 -8 -8 -8 -8 -8 -8 -8 -8 -9 -8 -8 -8 -8 -8 -8
2 2 2 2 1 1 0 0 0 -1 -1 -1 -2 -3 -3 -4 -4 -4 -5 -6 -6 -7 -8 -8 -9 -8 -9 -9 -9 -9 -9 -9 -9 -9 -9 -9 -9 -9 -8 -8 -8 -8 -8
Height
821 820 819 819 820 822 825 828 830 832 834 834 834 834 833 832 832 831 829 828 825 823 821 818 815 814 813 812 812 811 809 808 809 812 810 808 807 807 807 808 808 807 804
822 823 822 823 823 824 828 831 833 834 835 835 835 834 832 830 828 827 825 823 821 817 814 812 809 806 805 804 803 804 804 803 802 802 804 801 800 801 802 803 804 804 802
823 824 826 827 828 830 832 833 834 835 834 834 834 833 830 828 827 825 822 820 817 815 811 808 805 802 800 796 795 794 794 793 794 795 794 792 790 793 795 798 800 800 799
827 829 830 831 832 833 834 835 836 835 835 835 834 831 830 830 827 824 821 816 812 809 806 802 798 795 793 791 788 788 787 788 786 789 790 786 788 785 784 791 794 794 795
833 834 835 835 836 836 836 836 836 835 835 834 832 829 828 826 824 821 816 811 807 803 800 795 791 787 784 782 781 781 780 780 779 780 781 781 784 786 785 781 786 790 792
836 837 838 838 838 836 835 835 835 834 832 830 829 828 826 823 820 817 813 808 803 798 794 790 786 781 778 778 778 778 779 780 779 778 777 776 776 779 783 785 787 786 786
838 838 839 839 838 837 836 835 833 831 830 829 827 826 824 822 819 814 811 806 799 795 791 787 784 780 777 777 779 781 782 783 784 782 780 782 782 780 784 786 785 783 782
842 841 841 840 839 837 835 834 832 831 829 827 825 824 823 820 817 813 808 801 795 791 787 786 786 785 782 782 779 782 781 781 783 781 781 782 781 782 783 783 783 780 778
842 841 840 838 837 836 833 832 832 831 830 827 825 823 821 817 812 807 801 794 788 787 788 788 786 788 784 782 781 781 778 778 779 778 778 781 780 777 779 779 779 777 774
839 838 837 836 836 835 834 832 830 829 828 825 824 821 817 812 807 800 794 789 786 787 788 788 788 786 785 784 782 781 779 778 778 778 778 777 777 776 774 774 777 772 772
839 839 838 836 834 833 832 830 828 826 824 821 819 816 811 806 801 796 792 790 790 788 788 787 787 785 785 782 780 778 776 776 775 775 775 774 772 770 769 771 770 768 768
838 836 835 834 832 831 829 827 825 823 821 818 814 812 809 806 802 798 793 791 790 788 788 788 785 783 781 781 778 775 774 773 772 772 770 769 768 768 767 766 765 764 763
835 834 833 833 832 830 827 825 822 821 819 817 815 811 808 805 802 799 797 794 792 788 785 784 782 780 779 777 774 773 772 771 769 768 767 766 765 764 763 762 760 759 758
833 833 832 830 830 828 825 823 820 817 815 812 809 806 805 805 802 797 797 794 791 788 784 781 780 777 775 774 772 770 768 767 766 764 764 763 762 760 759 757 755 753 751
831 833 834 830 827 827 823 820 818 814 812 811 809 807 803 802 800 796 795 792 789 785 781 778 776 774 772 770 768 766 765 764 762 761 760 757 756 754 752 750 747 746 744
836 835 830 827 823 823 821 819 815 811 810 810 807 805 803 800 798 795 792 790 787 783 779 776 774 772 770 768 767 765 764 761 759 756 753 751 748 745 743 742 741 740 737
837 832 825 821 822 821 818 815 812 811 809 806 805 804 801 798 795 793 790 788 785 782 778 775 773 771 769 767 765 763 761 757 754 751 748 744 741 739 737 735 733 731 730
835 826 824 823 819 817 814 811 810 810 808 806 805 802 799 796 793 790 788 786 784 780 777 774 772 769 767 764 761 758 755 752 749 745 741 738 735 733 731 729 725 723 720
825 824 823 821 818 815 812 809 807 806 805 804 803 800 797 794 791 789 787 784 781 778 775 773 770 767 764 761 757 754 750 746 742 738 735 732 729 726 725 722 718 714 710
826 821 818 818 815 811 808 805 804 803 803 801 799 797 795 792 790 788 785 782 779 776 773 771 768 765 761 757 753 750 746 741 736 733 729 726 723 720 718 715 711 706 702
823 818 815 813 809 806 803 801 800 798 797 797 796 794 792 790 788 785 783 780 777 774 770 767 764 761 758 753 750 746 742 737 732 727 722 719 716 714 712 709 705 701 697
817 814 810 806 803 801 800 797 796 794 793 792 791 790 789 787 785 783 780 777 774 771 768 764 761 758 755 750 746 742 738 734 729 723 719 715 712 709 706 702 699 695 691
816 811 808 803 799 796 795 793 790 789 788 787 787 787 786 784 782 780 777 775 772 769 766 762 758 754 751 747 743 737 733 729 724 719 716 712 709 705 701 698 694 690 688
813 808 803 798 795 793 792 790 788 785 784 783 784 783 783 782 780 777 775 773 770 767 764 761 757 753 749 745 740 734 729 724 720 717 714 711 707 703 700 696 692 689 686
810 806 801 796 793 791 788 786 784 782 780 781 781 781 780 779 777 775 773 771 769 766 763 760 757 752 747 744 739 734 728 723 719 715 713 710 707 703 699 696 693 689 685
806 801 798 794 791 789 786 783 781 780 779 778 778 778 777 776 775 773 771 769 767 764 762 759 756 752 748 743 737 732 727 722 718 716 713 711 708 705 702 698 694 690 686
Wind_Speed
3 3 4 4 8 10 12 13 12 8 9 7 8 8 9 13 18 19 22 23 24 24 26 29 31 33 32 36 34 30 26 21 20 11 16 17 18 17 14 13 9 5 4
4 3 5 6 6 8 6 3 1 4 7 9 10 11 14 14 17 19 23 25 27 28 26 24 27 28 26 29 37 32 25 20 20 16 14 6 10 12 15 13 11 8 6
6 4 5 7 9 8 6 6 6 7 9 10 11 11 12 13 14 19 23 25 23 22 25 27 26 26 25 27 31 32 31 29 21 24 17 6 9 7 11 17 12 10 6
5 8 8 10 8 9 11 16 16 14 14 14 14 15 10 12 14 18 21 28 28 29 29 30 29 27 25 25 27 27 29 27 27 15 20 12 8 8 9 11 12 8 6
7 8 10 12 15 16 17 15 14 16 17 18 17 15 13 12 16 20 26 29 29 30 29 27 27 27 24 23 22 21 20 23 26 23 13 11 7 3 7 9 8 7 9
6 8 10 10 12 13 13 13 13 14 17 17 16 16 17 19 21 27 31 33 33 31 31 26 21 17 14 8 3 2 3 1 6 4 2 6 8 7 5 4 7 11 14
9 8 8 8 9 11 13 15 17 16 19 19 18 19 21 23 27 30 30 32 31 28 24 15 6 3 9 12 12 12 11 12 10 9 6 4 3 1 1 4 7 10 15
6 5 2 1 4 8 13 15 16 18 21 22 21 20 23 27 28 27 30 31 27 19 9 2 5 6 7 6 6 7 9 13 10 10 9 8 5 2 3 4 5 7 11
6 3 2 5 7 12 20 21 19 18 18 20 18 19 23 27 26 29 29 25 19 6 4 2 2 2 3 6 9 12 10 9 9 8 3 3 5 6 10 11 13 11 9
9 10 13 15 12 13 16 16 14 14 15 16 15 18 23 24 26 28 25 18 7 3 2 5 4 6 7 8 10 8 5 3 4 5 8 10 11 12 11 13 16 15 18
8 9 14 16 13 11 14 14 13 14 15 14 20 23 23 23 23 18 15 7 2 4 3 5 7 10 8 9 11 7 5 5 5 6 7 10 10 10 10 13 16 17 18
8 11 13 12 8 12 15 16 14 15 14 19 19 16 17 19 15 11 8 7 7 6 6 7 11 13 14 14 10 9 8 9 9 11 11 13 13 12 12 12 14 15 17
11 10 13 11 14 16 16 15 15 13 18 17 14 13 16 14 9 9 10 11 11 9 11 12 12 14 15 16 14 13 12 12 11 10 9 10 10 12 14 16 19 20 22
10 8 8 13 14 13 13 14 14 16 16 11 8 8 10 9 10 11 12 12 14 13 15 15 15 15 15 14 16 13 11 10 10 11 12 14 15 17 19 20 21 22 23
10 9 9 10 12 14 14 13 15 16 12 8 8 9 9 8 12 11 13 13 13 14 14 14 13 12 12 10 11 9 9 12 15 18 19 19 19 21 22 23 23 22 23
6 7 9 11 11 14 15 16 15 10 9 6 5 5 7 10 13 14 15 14 14 14 14 15 15 15 11 12 10 13 15 18 20 22 23 23 22 20 19 19 20 22 24
5 9 11 12 13 15 16 18 14 10 6 3 6 8 11 12 11 12 14 15 14 13 14 13 12 11 11 15 17 18 19 21 21 21 22 22 21 20 19 19 20 21 23
9 11 14 16 15 16 18 15 7 7 6 6 8 10 11 11 12 14 14 13 13 14 13 11 11 14 16 19 19 19 19 19 20 21 21 21 21 19 18 19 21 22 23
17 15 16 15 14 16 14 8 9 8 9 9 10 10 10 12 12 12 13 13 13 12 11 13 15 16 17 18 19 18 19 20 21 20 18 18 21 20 21 22 24 25 26
17 19 17 13 13 14 12 11 14 11 12 9 10 10 11 11 11 12 12 11 11 11 13 15 15 16 17 19 18 18 19 20 19 19 19 19 20 20 19 19 22 24 23
22 21 15 13 13 14 13 12 9 10 11 12 11 11 10 11 10 11 10 11 13 11 15 16 16 15 16 17 19 19 18 18 20 20 21 19 18 14 19 19 19 20 21
22 20 14 16 16 14 12 11 12 12 12 13 11 9 10 11 11 11 11 12 12 13 15 16 17 17 17 17 21 19 19 19 21 21 18 15 12 15 16 14 14 18 17
20 17 16 18 17 14 11 13 16 15 14 11 9 8 10 11 11 11 12 13 13 13 16 18 20 20 21 19 20 22 19 21 21 18 13 12 14 13 12 12 13 12 10
19 20 18 18 18 14 14 14 16 15 12 10 8 7 8 11 12 11 11 11 13 14 16 18 19 21 21 20 22 22 22 20 13 14 8 10 11 11 11 12 12 11 11
20 20 19 18 16 15 16 14 14 14 10 10 8 7 7 9 11 9 9 10 9 11 16 17 18 19 20 22 23 22 22 15 14 8 7 9 12 13 15 15 13 12 13
20 22 21 17 15 14 13 12 10 9 9 9 6 5 7 7 8 10 11 9 10 12 12 13 14 16 17 20 19 20 17 14 10 7 9 10 11 14 15 16 15 15 15
Wind_Direction
37 54 85 138 176 181 186 191 205 226 245 277 306 318 330 324 318 320 322 319 316 310 299 287 283 279 267 263 261 258 249 242 244 243 255 258 255 247 232 220 221 228 272
109 94 110 120 126 143 156 177 309 339 341 331 321 317 319 325 329 331 326 323 317 313 311 302 292 283 273 265 259 252 246 248 230 228 244 260 243 239 227 216 215 219 191
128 133 91 67 51 50 30 16 12 26 38 29 13 356 347 338 337 335 331 328 326 325 321 315 306 297 282 269 259 252 244 243 239 225 228 239 248 238 208 223 224 207 209
15 17 22 33 36 52 69 80 74 52 35 19 10 9 2 347 337 334 328 330 328 322 319 314 308 299 289 274 270 263 255 248 248 238 233 238 261 240 248 209 226 219 225
32 48 59 73 74 72 66 58 42 28 16 10 8 7 6 350 338 336 332 331 327 323 317 312 306 299 290 280 273 267 257 252 244 231 212 206 208 209 250 253 229 227 271
22 70 73 74 67 53 42 28 14 8 2 358 356 358 357 350 341 339 337 330 323 320 315 312 305 302 301 301 326 26 80 138 144 112 119 188 204 203 212 244 254 286 289
39 61 60 54 34 24 16 7 359 356 2 0 355 352 349 346 341 335 327 318 314 314 310 309 312 60 99 95 89 84 64 45 34 35 44 23 32 140 221 233 274 279 285
52 60 63 137 0 9 9 3 5 354 350 350 345 340 337 337 329 322 316 311 309 302 288 161 106 87 70 50 27 12 352 351 11 10 360 342 325 299 289 268 287 297 291
22 11 302 293 345 1 7 360 351 346 341 335 329 326 330 330 323 319 316 312 312 271 160 107 53 357 29 351 332 316 302 328 347 352 339 266 270 278 240 241 243 241 279
4 346 337 335 333 346 350 341 331 326 323 326 329 329 329 328 326 324 322 319 318 197 293 341 29 31 28 6 346 333 319 276 259 268 258 251 252 247 247 252 255 254 263
331 323 321 325 321 316 334 335 327 327 333 339 335 331 332 337 340 342 346 359 17 326 21 39 28 15 351 346 319 314 305 289 296 279 270 268 273 275 271 268 272 271 268
316 315 320 328 335 332 338 339 344 344 344 332 326 334 350 353 356 6 21 22 14 43 34 10 358 340 324 305 311 318 314 308 301 299 293 291 290 284 283 284 279 275 274
322 330 337 345 346 350 347 345 344 345 337 335 338 350 357 356 2 7 7 11 9 10 2 351 340 336 333 328 326 323 311 299 294 293 293 293 295 292 289 286 282 279 275
299 328 346 354 347 327 342 347 342 338 334 334 339 344 346 347 341 335 329 334 341 343 344 344 328 318 312 307 303 307 304 302 298 296 293 292 291 291 290 286 281 278 275
340 4 343 318 322 340 329 329 332 334 334 330 334 336 333 342 353 358 346 336 326 322 316 315 316 324 325 324 324 323 315 307 303 299 297 295 292 288 283 279 278 276 273
10 317 284 312 315 329 331 323 322 328 327 311 349 11 348 332 337 331 331 331 332 334 337 337 334 333 337 333 325 318 311 302 298 297 297 296 294 290 286 280 272 268 271
342 316 313 311 325 326 327 322 320 325 318 313 328 320 327 336 341 340 338 335 334 337 338 339 337 336 337 331 322 314 306 297 296 297 296 295 293 290 288 284 279 274 268
303 289 312 321 322 325 324 318 302 297 299 294 313 325 332 336 336 337 336 335 334 333 331 335 339 330 323 324 323 318 308 300 299 298 294 293 294 292 287 284 285 282 275
272 306 315 314 320 324 322 293 280 279 280 291 316 327 334 330 335 337 333 330 327 331 336 334 329 325 323 326 325 323 312 306 303 300 295 292 293 289 289 287 282 283 280
300 306 309 296 313 321 313 293 288 287 292 300 313 321 325 332 334 329 324 324 326 323 328 327 328 324 323 326 329 326 315 307 306 304 300 295 288 291 294 293 293 288 286
306 312 292 287 311 315 311 299 287 275 278 283 302 314 324 329 324 319 317 321 321 315 324 325 326 324 329 329 331 328 321 313 308 306 307 303 296 299 306 301 293 289 292
317 312 295 299 307 307 302 287 279 296 282 281 283 303 315 321 317 309 311 319 322 320 326 328 331 335 334 328 329 328 326 319 312 307 303 318 317 321 316 310 304 303 297
316 317 306 301 301 301 285 276 284 299 292 263 273 292 311 316 310 305 311 318 323 326 331 332 333 334 335 332 330 327 325 325 317 313 325 323 330 331 331 328 329 332 320
321 321 316 306 297 303 305 294 305 315 275 263 274 292 308 317 315 309 311 317 327 331 333 333 332 333 333 336 336 336 333 328 330 327 334 346 351 348 347 351 350 344 336
326 327 318 307 302 313 311 310 305 299 275 275 281 288 308 321 322 323 320 326 329 338 335 336 333 334 334 335 335 339 335 340 337 346 1 4 5 7 6 359 358 354 354
330 329 324 313 315 317 315 328 330 319 303 294 294 295 318 331 336 333 332 335 341 345 348 347 344 338 335 337 343 345 347 356 356 17 16 10 9 11 2 1 1 2 360